Location: Friaudour
(46.0460°N, 1.2873°E)
Time: 04:30:14
(UTC+00:00)

Cosmos 1850 Rocket - Pass Details

Date: 14 July 2020
Orbit: 754 x 785 km, 74.0° (Epoch: 06 August)

Event Time Altitude Azimuth Distance (km) Brightness Sun altitude
Exits shadow 02:46:39 13° 188° (S) 2,134 5.8 -12.6°
Maximum altitude 02:51:23 68° 108° (ESE) 848 4.3 -12.1°
Drops below altitude 10° 02:56:41 10° 26° (NNE) 2,351 7.9 -11.5°
Sets 02:59:06 0° 24° (NNE) 3,281 8.9 -11.2°
